Location: Kosice
(48.7170°N, 21.2500°E)
Time: 11:53:43
(UTC+02:00)

ISS - Pass Details

Date: 31 March 2019
Orbit: 408 x 410 km, 51.6° (Epoch: 25 April)

Event Time Altitude Azimuth Distance (km) Brightness Sun altitude
Rises 21:01:13 0° 289° (WNW) 2,338 1.6 -19.0°
Reaches altitude 10° 21:03:19 10° 291° (WNW) 1,475 0.2 -19.3°
Maximum altitude 21:06:37 72° 17° (NNE) 434 -3.8 -19.8°
Enters shadow 21:06:41 72° 28° (NNE) 435 -3.8 -19.8°
